GW2284 Weather Reports


Display with metric or nautical units.
time (UTC)temp
F
wind
direction
speed
MPH
gust
MPH
rain 1hr
in
rain 24hr
in
rain mn
in
humidity
%
barometer
mb
20260507034600 43 56 0.0 4.0 0.00 0.27 0.00 92 1011.6
20260507033053 44 50 2.0 5.0 0.00 0.27 0.00 92 1011.4
20260507031548 44 60 0.0 4.0 0.00 0.27 0.00 92 1011.4
20260507030047 44 61 1.0 3.0 0.00 0.27 0.00 92 1011.3
20260507024518 44 45 0.0 2.0 0.00 0.27 0.00 92 1011.3
20260507023016 44 46 2.0 5.0 0.00 0.27 0.00 92 1011.4
20260507021516 44 24 0.0 1.0 0.00 0.27 0.00 92 1011.5
20260507020108 44 24 0.0 3.0 0.00 0.27 0.00 92 1011.5
20260507014541 44 44 0.0 0.0 0.00 0.27 0.00 92 1011.3
20260507013043 44 45 0.0 3.0 0.00 0.27 0.00 91 1011.2
20260507011532 44 30 0.0 4.0 0.00 0.27 0.00 91 1011.1
20260507010034 45 62 1.0 3.0 0.00 0.28 0.00 91 1011.2
20260507004528 45 61 0.0 1.0 0.00 0.28 0.00 91 1011.0
20260507003031 45 61 0.0 2.0 0.00 0.28 0.00 91 1010.9
20260507001522 45 58 0.0 3.0 0.00 0.28 0.00 91 1010.7
20260507000022 46 63 0.0 2.0 0.00 0.28 0.00 91 1010.6
20260506234519 46 63 0.0 4.0 0.00 0.28 0.00 91 1010.7
20260506233015 46 47 1.0 3.0 0.00 0.28 0.00 91 1010.6
20260506231513 47 46 1.0 4.0 0.00 0.28 0.00 91 1010.6
20260506230011 47 53 1.0 4.0 0.00 0.28 0.00 90 1010.6
20260506224509 47 45 0.0 4.0 0.00 0.28 0.00 90 1010.5
20260506223005 48 53 0.0 4.0 0.00 0.28 0.00 90 1010.5
20260506221500 48 53 0.0 2.0 0.00 0.28 0.00 90 1010.3
20260506220100 49 53 1.0 3.0 0.00 0.28 0.00 89 1010.1
20260506214556 49 49 0.0 2.0 0.00 0.28 0.28 90 1010.0
20260506213111 50 47 2.0 4.0 0.00 0.28 0.28 90 1010.0
20260506211549 50 63 0.0 4.0 0.00 0.28 0.28 89 1009.9
20260506210049 50 55 2.0 3.0 0.00 0.28 0.28 89 1009.8
20260506204547 51 59 0.0 3.0 0.00 0.28 0.28 89 1009.7
20260506203047 52 57 0.0 3.0 0.00 0.28 0.28 89 1009.5
20260506201543 52 56 1.0 3.0 0.00 0.28 0.28 88 1009.2
20260506200043 53 55 0.0 4.0 0.00 0.28 0.28 87 1008.9
20260506194546 54 73 1.0 3.0 0.00 0.28 0.28 87 1008.5
20260506193042 54 52 0.0 4.0 0.00 0.28 0.28 87 1008.1
20260506191541 55 80 1.0 4.0 0.00 0.28 0.28 86 1007.8
20260506190038 56 157 0.0 4.0 0.00 0.28 0.28 85 1007.4
20260506184547 56 180 2.0 4.0 0.00 0.28 0.28 83 1007.0
20260506183051 57 133 0.0 3.0 0.00 0.28 0.28 82 1006.7
20260506181512 58 159 0.0 5.0 0.00 0.28 0.28 78 1006.3
20260506180005 59 74 1.0 2.0 0.00 0.28 0.28 80 1005.9
20260506174502 60 60 1.0 3.0 0.00 0.28 0.28 78 1005.7
20260506173002 61 288 1.0 3.0 0.00 0.28 0.28 73 1005.6
20260506171605 61 223 0.0 2.0 0.00 0.28 0.28 71 1005.5
20260506170100 62 233 3.0 7.0 0.00 0.28 0.28 71 1005.5
20260506164613 63 248 4.0 8.0 0.00 0.28 0.28 68 1005.3
20260506163058 63 143 1.0 6.0 0.00 0.28 0.28 67 1005.2
20260506161555 63 211 1.0 4.0 0.00 0.28 0.28 71 1005.3
20260506160100 62 118 0.0 4.0 0.00 0.28 0.28 68 1005.4
20260506154555 62 146 1.0 7.0 0.00 0.28 0.28 71 1005.4
20260506153110 62 101 2.0 7.0 0.00 0.28 0.28 71 1005.4
20260506151551 62 58 2.0 6.0 0.00 0.28 0.28 71 1005.6
20260506150058 63 132 1.0 6.0 0.00 0.28 0.28 65 1005.4
20260506144619 63 115 3.0 8.0 0.00 0.28 0.28 68 1005.5
20260506143022 64 155 4.0 10.0 0.00 0.28 0.28 67 1005.4
20260506141514 65 107 5.0 9.0 0.00 0.28 0.28 69 1005.5
20260506140016 64 132 2.0 8.0 0.00 0.28 0.28 67 1005.6
20260506134511 63 109 2.0 7.0 0.00 0.28 0.28 70 1005.9
20260506133012 65 180 3.0 7.0 0.00 0.28 0.28 68 1006.0
20260506131546 64 118 2.0 12.0 0.00 0.28 0.28 71 1006.0
20260506130037 62 238 3.0 10.0 0.00 0.28 0.28 73 1005.9
20260506124534 63 224 3.0 7.0 0.00 0.28 0.28 73 1005.9
20260506123034 61 124 3.0 12.0 0.00 0.28 0.28 75 1006.0
20260506121533 62 90 3.0 11.0 0.00 0.28 0.28 74 1005.8
20260506120038 62 101 3.0 10.0 0.00 0.28 0.28 74 1005.8
20260506114609 61 116 3.0 7.0 0.00 0.28 0.28 73 1005.9
20260506113059 60 83 3.0 7.0 0.00 0.28 0.28 77 1006.0
20260506111528 61 127 1.0 10.0 0.00 0.28 0.28 78 1006.0
20260506110025 59 90 3.0 8.0 0.00 0.28 0.28 80 1006.1
20260506104518 59 127 2.0 8.0 0.00 0.28 0.28 80 1006.3
20260506103017 59 144 2.0 6.0 0.01 0.28 0.28 81 1006.6
20260506101517 58 215 2.0 6.0 0.01 0.28 0.28 81 1006.4
20260506100016 59 241 2.0 9.0 0.01 0.28 0.28 79 1006.5
20260506094511 59 174 1.0 7.0 0.01 0.28 0.28 79 1006.6
20260506093009 58 143 3.0 8.0 0.00 0.28 0.28 79 1006.7
20260506091505 58 139 3.0 9.0 0.00 0.28 0.28 84 1006.7
20260506090107 57 84 2.0 8.0 0.00 0.28 0.28 85 1006.8
20260506084529 56 89 1.0 6.0 0.00 0.28 0.28 82 1006.8
20260506083013 57 29 1.0 5.0 0.00 0.28 0.28 79 1006.8
20260506081509 56 322 3.0 6.0 0.00 0.28 0.28 82 1006.9
20260506073004 53 227 2.0 6.0 0.00 0.28 0.28 91 1007.3
20260506071606 51 313 1.0 3.0 0.00 0.28 0.28 92 1007.3
20260506061513 50 109 0.0 1.0 0.04 0.28 0.28 92 1007.9
20260506044524 50 140 0.0 4.0 0.15 0.24 0.21 92 1008.0
20260506043101 50 123 0.0 2.0 0.13 0.19 0.16 92 1007.9
20260506041602 50 124 1.0 3.0 0.09 0.13 0.10 92 1008.1